Theta_e
316 317 318 319 319 320 320 320 321 321 323 327 325 328 329 327 333 337 327 326 328 333 337 340 337 337 337 336 334 332 333 332 331 326 324 318 311 309 308 312 329 323 320 318 315 315 315 314 314
317 322 319 318 320 321 320 322 322 321 328 327 325 323 325 331 328 326 325 327 325 338 336 339 340 337 337 336 333 332 333 332 329 325 321 313 309 307 309 324 329 323 318 315 315 316 315 314 313
316 319 318 321 322 321 321 321 323 324 327 327 327 327 330 335 333 335 325 326 337 340 337 338 340 340 338 335 333 333 334 331 325 324 316 309 307 309 314 319 327 322 316 315 316 316 315 315 314
318 318 318 319 318 319 321 322 325 326 327 325 324 331 331 339 337 339 340 336 339 339 339 338 340 339 338 335 333 334 334 326 325 318 310 307 309 313 318 320 324 320 315 315 316 317 316 316 314
318 318 320 320 320 321 321 323 325 327 325 325 326 331 328 332 335 337 338 339 338 339 338 336 339 339 338 336 334 335 330 326 321 312 307 309 311 316 318 320 321 317 315 316 317 317 316 316 314
319 319 320 320 321 321 322 323 325 326 329 327 328 328 324 325 336 336 339 338 339 338 338 336 338 338 338 336 335 333 326 323 314 308 308 310 314 315 317 318 317 316 316 317 317 317 318 316 314
318 319 320 320 319 322 325 322 326 326 326 329 323 328 329 332 337 338 341 337 334 336 329 334 332 337 337 337 333 327 325 316 309 308 310 311 314 316 317 316 315 316 316 317 317 318 319 317 313
318 318 318 320 322 320 323 323 325 326 327 329 330 334 330 325 336 338 340 337 335 333 328 327 328 332 333 331 328 322 315 310 308 310 311 314 316 317 317 316 316 316 317 317 318 319 320 319 314
317 318 319 321 321 321 321 322 323 322 321 328 332 336 336 336 334 337 337 335 334 333 332 330 328 330 328 327 321 319 311 309 312 313 314 317 318 317 317 316 316 316 317 317 319 320 321 319 315
319 319 320 322 320 320 320 319 325 325 325 325 324 337 336 335 336 336 332 333 333 332 333 330 329 331 327 325 324 312 315 313 314 316 318 319 318 317 316 315 316 316 317 318 319 320 318 318 317
320 320 320 320 320 320 321 321 326 327 328 323 327 335 336 333 333 333 330 331 331 332 332 332 329 330 326 325 319 311 312 310 314 317 317 317 317 315 314 315 316 317 318 319 320 319 319 318 318
320 319 320 322 321 321 321 322 325 324 330 332 333 336 335 332 331 331 331 330 331 331 331 331 329 324 325 323 318 316 316 318 318 319 319 320 319 316 315 316 317 318 319 320 320 320 319 319 318
321 321 322 321 321 321 321 322 323 324 331 332 333 333 332 332 330 329 330 328 329 327 327 327 324 321 322 322 321 322 320 317 318 317 316 316 322 316 317 317 317 319 320 320 320 320 320 319 316
321 323 323 323 324 324 323 322 326 326 328 332 332 332 332 329 328 329 328 325 324 326 322 321 322 320 321 319 321 318 317 313 312 314 317 322 320 322 322 320 320 321 320 320 320 321 320 315 315
321 321 323 324 323 322 325 323 326 323 329 331 331 332 331 327 326 327 326 325 323 322 321 320 320 319 319 317 315 313 311 313 314 317 321 320 323 323 325 323 323 322 321 320 319 319 315 315 310
322 321 322 324 324 323 325 325 325 323 322 328 330 329 326 326 323 324 323 323 322 321 321 320 319 318 316 314 313 314 315 316 317 316 311 317 323 322 324 323 323 322 320 320 319 319 318 313 310
321 322 322 325 324 325 324 324 326 323 323 327 330 328 325 326 325 323 323 323 322 321 321 320 319 317 317 316 316 316 316 316 321 320 321 318 321 324 323 323 322 322 321 321 320 318 316 313 310
323 323 323 322 324 324 324 324 325 327 329 329 330 329 327 326 327 327 323 322 323 322 318 317 316 315 315 314 315 318 321 320 321 321 322 322 320 321 324 323 323 322 321 320 319 317 315 312 311
323 322 322 323 324 324 323 324 324 325 326 328 329 328 327 327 328 326 325 324 321 318 317 316 316 319 322 321 323 323 322 320 322 321 322 322 321 324 321 324 324 323 321 321 320 316 314 311 311
321 321 322 324 324 322 322 324 324 324 327 327 329 328 328 327 327 327 324 322 318 317 320 322 323 324 324 322 322 321 319 319 321 323 324 323 324 324 324 324 323 322 321 319 318 318 315 311 311
322 323 323 324 324 324 324 324 322 324 326 327 329 329 329 328 327 327 325 322 321 320 321 324 325 326 323 324 325 323 322 321 322 324 325 322 323 328 324 321 323 323 321 319 319 318 315 312 313
323 323 324 323 323 324 324 326 324 323 324 327 328 330 326 327 327 327 327 326 323 323 324 325 326 328 327 326 326 324 323 322 323 324 325 324 322 327 325 322 323 322 321 319 319 319 317 312 313
323 323 324 324 324 325 325 326 324 324 324 326 327 329 328 328 326 328 327 328 325 325 327 326 326 327 326 325 328 325 323 322 322 323 326 326 323 327 326 324 324 322 321 320 318 318 316 312 313
322 323 323 323 325 327 325 325 325 324 323 324 326 327 329 330 328 328 328 327 329 328 327 329 328 328 327 329 326 328 326 324 325 327 326 326 325 322 324 323 323 323 321 320 318 314 313 312 312
322 324 326 330 329 330 326 326 324 325 324 323 324 326 328 328 330 329 329 327 327 328 328 329 329 328 329 330 330 327 328 326 326 326 326 326 326 325 321 320 323 323 321 320 316 313 313 312 311
323 324 329 333 332 329 325 323 320 323 322 322 322 323 325 326 329 328 328 330 328 327 329 328 329 328 329 329 331 330 327 329 328 326 328 326 326 325 324 322 322 322 321 318 316 313 313 312 310
324 324 325 328 329 332 326 325 323 322 321 321 321 322 324 325 325 328 329 327 329 329 329 329 329 329 329 330 330 331 331 329 329 329 329 327 326 324 324 322 322 321 316 315 313 313 312 311 307
322 324 326 326 329 329 323 323 326 323 322 321 321 322 322 324 325 326 327 329 328 328 329 329 330 331 330 330 330 330 331 331 330 330 328 325 325 325 322 322 321 319 316 314 314 312 311 309 306
322 323 326 325 325 328 329 326 324 323 321 322 322 321 321 323 325 325 326 327 330 330 329 329 330 331 332 331 331 330 332 331 330 330 327 326 324 323 321 321 320 317 315 313 312 309 309 308 306
322 323 325 328 326 328 330 328 324 324 323 322 322 321 321 321 323 325 325 325 327 330 332 332 331 332 332 331 331 331 332 329 329 328 327 324 324 322 319 319 318 316 314 312 311 310 308 307 305
Wind_Speed
8 7 6 12 7 8 17 17 14 11 10 3 10 2 16 14 8 4 17 17 44 41 29 29 32 35 35 34 33 30 27 25 23 21 18 16 17 20 23 25 25 24 25 24 24 25 25 24 24
6 7 11 16 10 14 9 5 13 11 4 5 13 16 15 6 6 2 3 8 16 18 27 29 27 34 35 35 33 30 27 25 23 21 18 18 21 23 25 26 25 24 25 24 24 24 24 23 23
5 6 13 11 13 15 8 7 9 16 14 19 9 10 10 6 7 5 3 6 15 21 23 28 27 29 33 34 32 30 26 25 23 21 20 21 24 25 26 26 25 23 24 24 24 23 22 22 23
5 14 13 11 16 16 6 8 12 20 12 15 12 15 5 10 3 5 4 6 19 24 25 29 30 32 33 34 32 29 26 25 23 21 23 25 26 27 26 26 25 23 24 24 23 21 19 19 21
12 15 12 16 16 14 5 10 11 16 8 9 20 8 12 5 9 2 6 14 18 26 22 26 30 32 34 34 32 29 27 25 22 23 26 27 27 27 27 26 25 23 22 22 20 19 17 17 17
16 21 14 12 6 12 8 11 11 14 18 17 15 8 8 15 9 4 6 12 15 27 13 23 25 28 33 34 33 31 28 25 24 26 28 28 29 28 28 27 24 23 21 20 18 16 15 16 15
14 12 16 17 14 4 8 20 19 10 11 6 4 7 6 20 3 0 5 13 8 23 11 22 9 22 36 36 32 29 26 25 27 28 28 28 28 27 26 25 23 22 20 18 17 15 14 14 13
17 12 20 14 18 6 4 5 8 16 17 5 11 4 12 12 2 5 4 8 18 21 16 26 23 22 27 30 29 28 27 27 28 29 29 30 29 28 26 24 22 21 19 17 15 13 12 11 12
14 11 10 13 15 7 1 10 8 14 18 21 5 12 15 9 5 2 2 6 13 16 16 20 28 22 26 25 25 23 25 25 25 28 29 29 29 26 25 21 20 19 17 16 13 10 9 10 11
10 10 4 16 10 10 11 10 5 3 19 23 33 16 16 12 7 10 8 7 11 12 16 23 26 31 33 32 29 25 23 24 25 27 27 26 26 24 23 20 19 17 16 14 11 9 12 11 9
16 12 14 15 14 12 12 11 2 16 4 11 8 11 13 8 8 5 10 13 19 25 24 24 28 30 37 33 39 40 38 25 26 27 25 26 22 22 21 21 19 17 14 13 11 10 8 9 6
12 13 14 15 16 16 11 14 7 18 10 8 13 15 14 9 5 5 8 12 13 20 29 35 35 36 39 39 34 34 36 31 31 26 21 19 17 19 20 19 17 15 14 13 11 8 6 4 2
9 12 12 11 10 15 17 10 16 11 3 8 9 12 14 11 8 8 8 13 13 23 26 29 33 36 39 37 37 35 32 35 31 26 22 18 17 17 18 16 17 16 11 12 10 9 6 2 2
16 11 16 8 24 19 12 16 6 23 8 7 6 11 12 11 4 5 8 20 23 22 28 31 36 36 39 40 37 40 39 35 30 31 25 17 15 11 12 12 13 12 13 11 12 8 4 1 3
16 14 8 8 8 20 23 15 8 19 18 12 10 13 13 10 5 7 13 19 23 28 31 29 27 32 35 38 38 36 39 32 35 28 21 18 13 16 15 14 13 17 14 13 10 8 6 6 4
16 17 12 17 15 21 24 8 4 17 31 26 16 18 18 17 14 15 19 22 22 24 27 25 28 29 32 34 34 33 35 29 24 26 27 23 19 17 17 18 20 18 16 17 14 12 10 9 7
14 15 15 8 16 19 12 8 15 19 33 23 20 20 20 23 15 16 19 22 28 26 25 27 27 29 30 31 36 34 30 25 17 17 18 19 23 20 23 21 18 18 19 16 13 12 12 12 9
5 12 9 8 11 9 14 7 3 24 39 12 23 25 22 22 21 20 18 20 25 24 33 39 36 31 29 32 28 25 21 20 21 23 26 24 25 25 23 18 16 18 18 16 17 15 14 13 10
12 14 16 5 17 6 10 6 12 8 8 11 15 15 19 19 24 24 24 19 26 38 41 32 28 23 23 26 25 23 27 28 27 32 30 26 24 23 21 17 17 19 19 18 16 18 17 17 18
12 11 15 9 9 2 10 6 9 10 8 14 16 15 19 19 21 24 29 30 36 38 29 22 17 20 23 23 22 24 23 22 21 21 26 24 24 24 21 20 21 20 21 18 20 21 21 17 15
10 13 14 11 6 12 13 13 7 14 17 17 20 20 22 24 27 29 32 34 33 30 29 27 28 20 19 19 23 23 21 21 22 26 27 25 24 22 21 20 23 22 22 23 25 22 20 16 19
13 9 14 9 10 7 8 9 15 12 12 12 20 26 25 25 32 32 33 36 37 31 26 28 29 29 20 23 27 26 26 27 26 26 26 23 26 24 22 22 24 25 22 24 27 22 23 21 20
13 8 9 11 12 14 9 10 4 7 18 16 13 26 30 30 30 37 37 37 40 35 33 29 30 27 28 24 24 27 24 23 24 25 26 24 23 25 25 26 27 30 26 27 30 26 24 23 24
14 13 10 12 12 10 14 8 6 4 11 15 19 23 29 36 32 32 35 35 37 36 36 34 31 30 28 32 27 24 25 25 24 24 26 28 26 26 24 24 30 28 27 29 31 25 24 28 26
11 10 7 6 7 7 3 9 5 16 14 2 2 24 26 31 35 37 37 38 38 39 39 37 36 35 32 31 31 32 28 27 26 25 30 27 27 26 25 27 33 30 29 32 31 27 27 31 29
14 14 5 6 4 4 4 6 3 11 11 6 5 5 12 19 29 34 33 40 40 40 41 41 39 39 36 36 33 31 31 30 27 29 29 29 28 29 27 25 28 31 31 32 32 27 31 35 28
14 15 17 7 10 5 7 13 10 8 5 4 3 1 9 14 15 24 33 35 40 41 42 42 39 38 38 38 39 35 33 32 33 30 34 31 27 28 27 22 21 29 30 30 28 30 31 30 22
17 11 13 8 5 10 8 10 8 9 7 7 6 7 7 1 7 14 24 33 36 37 40 40 37 37 35 34 36 37 37 33 30 33 31 29 28 27 23 24 26 26 29 30 28 32 31 25 25
12 12 10 13 10 8 5 3 10 4 2 8 5 9 4 6 5 5 9 15 32 34 35 39 38 35 30 32 35 35 33 30 31 33 33 29 26 20 23 26 25 24 28 31 31 24 20 23 23
17 16 16 8 10 7 6 9 3 5 3 5 3 6 7 7 5 6 7 10 13 19 20 30 32 30 28 29 33 34 33 30 31 31 28 27 26 20 18 18 19 23 22 22 23 25 24 22 17
Wind_Direction
259 287 312 272 252 239 252 255 311 322 339 348 314 3 312 329 345 324 350 341 271 304 173 170 172 170 167 165 164 163 160 155 152 149 142 136 135 131 128 125 123 123 119 114 109 104 99 93 89
256 276 268 267 253 266 283 304 302 312 130 6 327 293 298 333 74 59 18 350 216 234 178 173 176 171 169 167 165 164 160 157 153 149 142 140 137 133 131 127 125 124 120 117 112 106 99 92 88
246 246 265 240 252 263 305 277 326 318 63 9 343 284 340 72 61 34 357 275 226 180 178 176 174 174 170 168 167 166 161 157 153 150 146 144 139 136 134 131 126 125 123 119 113 106 99 93 88
271 249 243 259 263 281 299 348 21 329 17 0 315 327 339 30 104 144 168 224 208 175 188 179 175 171 170 170 171 166 160 157 156 153 147 144 141 139 137 134 131 129 124 121 115 108 99 91 88
252 262 254 257 283 317 328 351 109 245 144 96 13 260 319 272 279 199 244 194 194 177 198 184 176 175 170 170 171 164 162 159 159 155 149 147 145 144 143 140 138 131 127 124 118 109 101 89 85
272 257 275 283 298 272 316 322 338 325 348 101 158 150 281 269 257 183 204 172 193 172 175 179 180 178 170 170 166 163 161 161 161 155 153 151 149 148 146 145 139 131 131 126 119 111 100 88 79
256 282 286 294 297 82 36 357 306 335 27 142 218 149 64 281 279 338 192 166 149 192 185 153 187 193 177 168 160 159 161 163 161 157 153 150 147 144 142 140 138 139 135 130 123 113 95 87 80
256 287 284 305 320 335 146 249 15 25 323 295 249 37 120 302 247 219 136 144 160 177 202 190 224 148 115 138 146 155 160 162 161 156 152 151 148 146 145 144 144 141 137 135 125 113 96 86 81
275 268 289 313 266 356 298 327 342 336 268 288 27 86 141 142 188 125 133 134 177 176 191 187 186 188 203 153 141 146 155 154 155 152 151 150 146 147 149 148 148 143 140 136 127 111 95 73 69
244 275 245 271 315 312 340 308 220 332 61 334 353 83 103 104 85 86 100 133 160 168 187 185 180 187 175 170 158 155 146 148 151 151 149 145 146 149 151 149 153 147 144 140 129 110 90 61 40
251 283 313 310 327 320 308 306 71 262 49 159 226 94 104 72 90 94 116 149 166 155 171 183 188 186 180 174 168 165 156 150 160 149 150 144 153 158 158 158 156 151 153 152 144 126 131 130 198
252 280 298 309 325 313 288 307 302 290 29 62 83 96 87 95 96 107 126 157 171 167 170 174 185 169 159 170 166 161 152 167 147 143 148 155 161 166 168 164 162 165 165 162 153 185 175 183 233
266 287 295 303 306 289 270 278 276 294 104 57 65 86 99 100 103 115 142 147 166 162 165 170 166 150 158 157 153 150 158 160 152 150 153 168 186 177 174 176 176 175 173 168 183 199 192 216 213
297 251 285 33 320 312 307 274 67 337 318 126 79 75 79 92 99 130 148 145 145 163 159 160 163 154 153 151 159 162 161 157 158 160 165 184 174 176 164 186 175 164 202 176 206 197 207 175 281
277 278 280 16 257 275 268 271 15 349 301 127 92 95 84 70 77 144 155 155 161 159 160 158 160 163 162 164 168 168 162 165 167 178 194 187 184 187 191 200 178 193 202 199 195 204 184 228 190
272 264 258 230 231 255 255 255 131 261 230 252 125 119 108 97 111 127 147 145 152 148 141 151 161 165 166 166 172 170 157 175 193 204 200 202 193 201 199 207 197 207 195 211 209 205 207 206 215
247 262 256 155 215 242 250 300 210 178 235 241 136 136 125 122 132 136 159 166 156 153 148 149 150 151 149 150 151 156 170 187 198 202 217 217 203 204 203 213 212 211 210 222 210 204 215 216 200
257 271 303 298 208 249 260 319 347 188 202 165 153 153 144 146 146 153 145 152 156 152 148 143 141 147 153 158 168 179 196 190 200 206 205 212 209 217 215 221 219 218 220 214 213 214 210 219 207
282 303 292 117 261 243 283 302 177 230 167 140 147 152 145 154 152 153 155 159 161 156 150 153 162 172 178 187 186 189 195 195 200 203 214 221 215 219 223 222 215 230 225 229 221 208 219 208 215
289 277 280 300 333 3 290 232 228 178 157 176 169 183 155 158 159 159 161 167 168 159 172 180 185 191 189 189 186 197 202 200 200 206 209 218 219 225 228 225 228 239 217 217 226 228 221 223 232
251 261 276 272 255 249 335 321 195 172 179 192 177 175 166 178 172 172 173 176 181 182 184 187 199 196 195 185 192 197 202 203 203 212 226 227 225 222 234 227 222 240 216 221 232 233 223 213 226
246 253 269 286 286 272 259 266 223 212 189 204 177 172 178 190 180 182 181 184 189 200 196 202 198 202 206 196 200 201 202 203 205 217 233 235 230 223 229 233 219 231 224 221 239 244 230 207 231
262 309 299 281 274 287 209 268 112 173 216 189 201 174 181 185 195 184 189 196 201 199 204 200 203 207 211 204 209 202 206 213 209 214 230 239 242 225 226 231 223 225 231 231 236 244 229 216 223
258 275 258 263 259 262 269 220 112 298 259 177 190 187 185 181 189 196 193 197 200 204 205 208 208 210 210 213 211 212 220 207 212 214 225 240 250 235 234 244 231 231 239 236 228 235 220 217 224
238 229 241 238 239 244 192 258 178 201 221 93 119 185 191 186 188 193 195 193 197 204 207 207 211 206 210 219 223 217 215 220 209 221 228 234 239 241 242 242 235 236 242 238 227 214 229 226 227
217 217 203 193 298 279 323 254 200 137 102 153 173 252 180 198 194 195 197 195 198 204 205 209 209 212 211 214 223 227 221 219 226 219 234 238 245 254 258 260 247 240 245 238 223 227 224 233 232
203 221 251 236 240 262 221 254 183 125 116 132 234 200 207 200 216 212 201 203 200 201 209 215 214 214 212 216 218 221 224 223 223 225 235 242 248 254 254 260 255 239 231 229 227 220 231 237 235
251 231 227 232 251 249 270 262 343 199 197 135 178 125 123 248 259 239 219 206 203 202 208 217 219 210 216 216 221 224 223 227 226 230 235 243 239 245 260 258 253 243 236 238 234 232 229 230 238
217 236 248 241 225 240 269 141 169 37 148 167 174 146 149 150 165 224 230 219 208 209 203 211 212 212 214 219 220 221 220 222 224 230 238 235 239 248 247 247 248 245 240 229 225 224 248 253 268
237 214 236 243 236 229 170 258 171 317 304 243 208 223 197 186 165 171 194 211 222 212 204 203 206 206 213 222 221 228 228 226 229 232 230 238 234 253 248 248 252 242 235 235 235 245 246 256 260